Location: Lamoine Observatory
(44.4551°N, 68.3470°W)
Time: 17:48:57
(UTC-04:00)

Daily predictions for brighter satellites

Satellite Brightness Start Highest point End
(mag) Time Altitude Azimuth Time Altitude Azimuth Time Altitude Azimuth
Cosmos 2034 Rocket 4.3 20:38:44 10° NNW 20:45:06 75° W 20:51:22 10° S
SPOT 5 3.1 20:42:49 10° SE 20:46:57 45° ENE 20:51:05 10° N
Cosmos 1346 Rocket 4.0 20:45:27 10° SSE 20:48:39 25° E 20:51:55 10° NE
Lacrosse 5 4.4 20:50:56 10° NW 20:54:37 20° N 20:58:17 10° NE
CZ-4 SHROUD 3.5 20:53:10 10° SSE 20:56:15 54° ENE 20:59:22 10° N
Cosmos 2369 Rocket 2.2 20:51:06 10° NNW 20:56:48 77° ENE 21:02:25 10° SSE
SL-8 R/B 4.3 20:52:03 10° WNW 20:56:50 58° N 21:01:37 10° E
H-2A R/B 4.0 20:54:31 10° E 20:57:23 15° ENE 21:00:18 10° NNE
PSLV R/B 3.5 20:54:33 10° SSE 20:57:34 51° ENE 21:00:38 10° N
USA 234 4.0 20:51:29 10° E 20:57:45 50° NNE 21:04:02 10° NW
COSMOS 2455 3.1 20:57:35 10° SW 21:03:35 76° WNW 21:09:38 10° NNE
ERS-1 Rocket 3.7 21:00:05 10° S 21:04:59 53° W 21:09:55 10° NNW
SPOT 1/Viking Rocket 4.2 21:01:21 10° SE 21:06:10 42° ENE 21:11:00 10° N
YAOGAN 6 3.3 21:09:24 12° SE 21:12:36 42° ENE 21:16:10 10° N
Cosmos 1900 4.5 21:10:09 10° SSW 21:15:11 57° ESE 21:20:14 10° NE
Cosmos 1766 4.1 21:13:00 10° N 21:16:46 37° ENE 21:19:45 15° SE
USA 238 DEB 4.3 21:15:39 10° S 21:21:55 35° ESE 21:28:10 10° NE
USA 238 4.3 21:15:46 10° S 21:22:00 35° ESE 21:28:15 10° NE
Envisat 3.3 21:17:59 10° S 21:23:02 68° WSW 21:28:07 10° NNW
Cosmos 1758 Rocket 3.8 21:20:16 10° S 21:24:30 51° E 21:28:44 10° NNE
Cosmos 407 Rocket 3.5 21:21:12 10° S 21:26:25 70° ESE 21:31:37 10° NNE
Cosmos 2263 4.3 21:26:38 10° NNW 21:32:16 78° WSW 21:37:05 14° SSE
MetOp-A 4.3 21:31:36 11° S 21:36:49 77° WSW 21:42:12 10° NNW
UNK 4.3 21:32:06 10° NNE 21:37:37 87° ESE 21:43:26 10° SSW
SL-27 R/B 3.0 21:36:56 21° SSE 21:38:38 35° ESE 21:41:43 10° NE
Cosmos 1825 Rocket 4.0 21:35:39 10° SSW 21:40:03 64° W 21:44:28 10° N
Cosmos 1805 4.3 21:39:42 10° N 21:43:16 31° ENE 21:45:07 21° ESE
COSMOS 2406 3.8 21:39:26 13° SSE 21:43:54 37° ESE 21:49:08 10° NE
Cosmos 1943 Rocket 2.2 21:40:50 10° NNW 21:46:25 77° ENE 21:50:21 20° SSE
Cosmos 1954 Rocket 4.0 21:42:39 10° S 21:47:53 63° ESE 21:53:07 10° NNE
Lacrosse 4 Rocket 2.1 21:45:40 10° SW 21:49:38 54° WNW 21:53:42 10° NNE
COSMOS 2487 4.4 21:50:48 15° E 21:50:48 15° E 21:52:50 10° ENE
Cosmos 1656 Rocket 4.3 21:47:45 10° NNW 21:53:13 45° ENE 21:56:53 20° ESE
Cosmos 2084 3.4 21:50:26 10° NW 21:54:34 86° SW 21:56:59 26° SE
SeaSat 1 2.9 21:52:49 17° S 21:56:28 56° WSW 22:01:20 10° NW
Atlas Centaur 2 4.0 21:51:10 10° WSW 21:56:56 25° S 22:00:12 20° SSE
DELTA 2 DEB (DPAF) 4.2 21:54:22 23° SSE 21:57:08 71° ENE 22:01:38 10° N
Cosmos 1943 4.3 21:54:22 10° SW 21:59:50 47° WNW 22:05:21 10° NNE
Cosmos 2208 Rocket 4.2 21:54:45 10° NNW 21:59:52 57° ENE 22:02:52 24° SE
ISS -1.1 21:57:43 10° WNW 22:00:36 28° NNW 22:03:29 10° NE
CZ-4C R/B 3.3 22:00:19 26° SSE 22:02:36 79° ENE 22:06:34 10° N
Landsat 7 3.8 22:02:45 25° SSE 22:05:31 72° ENE 22:10:17 10° N
SL-23 DEB 4.1 22:02:53 10° SW 22:08:58 81° SSE 22:12:40 10° ENE
CZ-4B R/B 4.2 22:07:25 10° N 22:12:26 56° WNW 22:17:31 10° SSW
Cosmos 1741 Rocket 4.2 22:09:31 23° S 22:12:34 51° ESE 22:17:43 10° NNE
Geosat 4.3 22:08:21 10° NE 22:13:11 46° ESE 22:15:46 25° S
CZ-4 R/B 4.1 22:08:24 10° N 22:13:25 75° WNW 22:18:13 11° SSW
Cosmos 1707 4.4 22:15:04 19° E 22:15:21 19° E 22:18:11 10° NE
Cosmos 1953 2.2 22:11:21 10° N 22:15:21 89° W 22:17:07 32° S
Lacrosse 5 rocket 4.3 22:15:28 10° NNW 22:17:49 15° N 22:20:14 10° NE
Nadezhda 4 Rocket 4.1 22:13:52 22° SSE 22:17:58 63° E 22:24:13 10° NNE
NOSS 2 (A) 4.4 22:15:38 10° NNW 22:18:03 58° NE 22:18:16 54° E
Terra 1.8 22:19:03 30° SSE 22:21:20 73° ENE 22:26:06 10° N
PSLV R/B 4.3 22:18:10 10° W 22:21:15 32° SSW 22:21:15 32° SSW
Aureole 2 4.3 22:18:38 10° NNW 22:21:35 51° ENE 22:21:54 48° E
ARGOS 3.7 22:18:01 19° S 22:21:51 54° W 22:27:11 10° NNW
Spot 4 4.0 22:19:48 30° SE 22:22:00 60° ENE 22:26:44 10° N
Cosmos 2221 4.0 22:19:22 10° NNE 22:22:48 23° ENE 22:24:01 20° E
Cosmos 1023 Rocket 4.4 22:18:44 16° SSW 22:23:02 83° ESE 22:28:20 10° NNE
ATLAS 3B R/B 3.7 22:17:36 10° WSW 22:25:07 55° NW 22:32:26 10° NNE
Cosmos-2242 3.5 22:21:20 10° NNW 22:25:40 58° W 22:28:02 25° SSW
Cosmos 1850 Rocket 3.9 22:24:44 23° S 22:28:03 72° ESE 22:33:15 10° NNE
Cosmos 1842 4.0 22:25:37 17° SSW 22:28:22 49° WNW 22:32:11 10° N
Cosmos 1140 Rocket 3.5 22:26:31 15° SSW 22:30:54 85° WNW 22:36:12 10° NNE
Cosmos 1570 Rocket 4.1 22:26:19 10° NNW 22:31:41 73° WSW 22:34:19 31° S
Cosmos 1733 3.9 22:32:29 10° N 22:36:07 38° ENE 22:36:46 35° ESE
H-2A R/B 2.0 22:33:42 31° S 22:36:07 78° WSW 22:41:17 10° NNW
NOSS 3-2 (A) 3.8 22:35:29 30° SSE 22:37:55 43° ESE 22:44:04 10° NE
Lacrosse 5 3.7 22:34:42 10° NW 22:39:01 27° NNE 22:43:19 10° E
SL-8 R/B 3.7 22:34:43 10° WNW 22:39:30 64° SSW 22:41:05 40° SE
Cosmos 2369 Rocket 4.4 22:36:48 10° WNW 22:40:05 16° W 22:43:20 10° SW
Cosmos 1607 3.8 22:33:54 10° SSW 22:40:11 82° ESE 22:46:25 10° NE
USA 234 3.4 22:37:09 29° SSE 22:40:38 64° SW 22:47:11 10° NW
Cosmos 1655 Rocket 4.5 22:48:16 32° SE 22:50:37 45° E 22:56:30 10° NNE
Cosmos 614 Rocket 3.9 22:48:02 27° SSW 22:50:57 89° WNW 22:56:14 10° NNE
Cosmos 2026 Rocket 4.2 22:55:03 35° SE 22:57:15 51° E 23:03:05 10° NNE
Cosmos 1544 3.5 22:57:35 10° NNW 23:01:17 55° W 23:01:55 48° SW
Cosmos 1340 2.5 23:00:50 66° S 23:01:20 90° NNW 23:05:10 10° N
Meteor 2-5 Rocket 3.7 23:00:28 36° S 23:02:58 79° E 23:08:44 10° NNE
CZ-4C R/B 2.2 23:03:35 40° S 23:05:23 59° ESE 23:11:16 10° NE
Cosmos 1980 Rocket 4.5 23:05:26 10° N 23:08:56 16° NE 23:12:27 10° E
Okean 3 Rocket 3.5 23:08:05 50° SSW 23:09:11 84° W 23:13:39 10° N
Cosmos 1627 Rocket 4.4 23:08:12 38° S 23:10:38 74° E 23:16:47 10° NNE
Meteor 1-16 Rocket 4.2 23:05:18 10° N 23:10:59 76° E 23:13:00 42° SSE
Cosmos 2228 Rocket 4.1 23:08:12 10° N 23:12:10 32° ENE 23:12:53 30° E
Meteor 2-1 Rocket 4.4 23:06:25 10° N 23:12:19 67° ENE 23:14:19 41° SE
USA 238 DEB 4.3 23:05:38 10° SW 23:12:36 58° NW 23:19:34 10° NNE
USA 238 4.3 23:05:43 10° SW 23:12:42 58° NW 23:19:40 10° NNE
Cosmos 2278 3.8 23:11:51 10° NNW 23:17:30 66° ENE 23:19:32 40° SE
Cosmos 1470 3.3 23:15:04 10° NNW 23:18:49 46° W 23:19:20 43° WSW
Cosmos 1408 Rocket 3.6 23:21:14 56° SE 23:21:42 60° E 23:26:07 10° NNE
COSMOS 2487 3.9 23:24:51 28° WSW 23:25:58 35° WNW 23:29:19 10° N
Cosmos 405 Rocket 3.4 23:27:35 41° ENE 23:27:35 41° ENE 23:30:45 10° NNE
Cosmos 1697 Rocket 4.1 23:23:13 10° N 23:28:15 31° NE 23:31:19 19° ESE
Cosmos 1943 Rocket 4.2 23:26:16 10° WNW 23:29:27 16° W 23:31:53 12° SW
CENTAUR R/B 3.9 23:29:35 20° ESE 23:29:37 20° ESE 23:34:13 10° ENE
ALOS 2 3.2 23:32:11 41° E 23:32:53 45° ENE 23:37:05 10° N
Cosmos 1818 3.5 23:27:37 10° NW 23:33:07 80° WSW 23:34:29 52° SSE
Cosmos 1689 Rocket 3.8 23:34:48 29° NE 23:34:48 29° NE 23:37:17 10° N
Cosmos 2082 Rocket 2.9 23:34:49 35° ESE 23:35:19 36° ESE 23:40:27 10° NE
Cosmos 1833 Rocket 3.8 23:35:46 28° ESE 23:36:03 28° ESE 23:40:46 10° NE
NOSS 3-3 (A) 4.5 23:29:51 10° NW 23:37:14 70° WSW 23:40:25 39° SSE
NOSS 3-3 (C) 4.5 23:29:57 10° NW 23:37:21 70° WSW 23:40:33 39° SSE
CZ-4B R/B 2.4 23:37:33 41° ENE 23:37:33 41° ENE 23:41:02 10° N
ISS -0.9 23:35:01 10° NW 23:37:43 23° N 23:40:26 10° ENE
Cosmos 1417 Rocket 4.4 23:34:57 10° N 23:41:06 78° W 23:43:09 44° S
H-2A R/B 2.9 23:38:19 10° NNE 23:41:37 45° ENE 23:41:37 45° ENE
Landsat 5 4.1 23:41:45 41° E 23:42:04 42° ENE 23:45:58 10° N
Cosmos 1656 4.3 23:37:56 10° NNW 23:43:30 50° ENE 23:45:42 33° ESE
Cosmos 1553 Rocket 4.0 23:39:20 10° N 23:45:45 87° E 23:47:54 45° S
NOSS 3-2 (C) 3.5 23:43:08 29° SW 23:46:35 85° NW 23:53:22 10° NE
Cosmos 1707 4.1 23:50:19 29° W 23:51:05 31° WNW 23:54:38 10° N
Cosmos 1743 Rocket 3.7 23:51:30 58° ESE 23:51:40 59° E 23:56:04 10° NNE
